Home > Weather > Kuwait City > Past weeks

Flag for Kuwait Weather for the Past 2 Weeks in Kuwait City, Kuwait

Now
55 °F

Clear.


Feels Like: 52 °F
Forecast: 48 / 65 °F
Wind: 13 mph from North

Location: Kuwait International Airport

Current Time: Feb 9, 2016 at 3:09:29 AM

Latest Report: Feb 9, 2016 at 2:00 AM


Visibility: 10 mi

Pressure: 30.21 "Hg

Humidity: 55%

Dew point: 39 °F

Location of Kuwait CityLocation

Historic Weather in Kuwait City — Graph

°F

Kuwait City Temperature Yesterday

Maximum temperature yesterday: 72 °F (at 3:00 PM)
Minimum temperature yesterday: 45 °F (at 7:00 AM)
Average temperature yesterday: 61 °F

High & Low Weather Summary for the Past Weeks

 TemperatureHumidityPressure
High75 °F (Feb 6, 2:00 PM)87% (Feb 6, 4:00 AM)30.42 "Hg (Feb 6, 4:00 AM)
Low32 °F (Jan 31, 4:00 AM)16% (Jan 29, 2:30 PM)29.83 "Hg (Feb 7, 3:00 PM)
Average53 °F45%30.20 "Hg
* Reported Jan 25 1:00 AM — Feb 9 1:00 AM, Kuwait City, Weather by CustomWeather, © 2016

Note: Actual official high and low records may vary slightly from our data, if they occured in-between our weather recording intervals... More about our weather records

Advertising

Kuwait City Weather History for the Previous 24 Hours

 ConditionsComfort  
Time TempWeatherWind HumidityBarometerVisibility
1:00 AM
Tue, Feb 9
57 °FClear.16 mph51%30.21 "Hg10 mi
12:00 AM59 °FClear.14 mph45%30.21 "Hg10 mi
11:00 PM
Mon, Feb 8
59 °FClear.14 mph45%30.18 "Hg10 mi
10:00 PM59 °FClear.9 mph45%30.18 "Hg10 mi
9:00 PM61 °FClear.9 mph42%30.15 "Hg10 mi
8:00 PM61 °FClear.9 mph39%30.15 "Hg10 mi
7:00 PM63 °FClear.8 mph37%30.12 "Hg10 mi
6:00 PM64 °FClear.10 mph32%30.12 "Hg10 mi
5:00 PM68 °FSunny.15 mph26%30.09 "Hg10 mi
3:59 PM70 °FSunny.13 mph25%30.09 "Hg10 mi
3:00 PM72 °FSunny.13 mph23%30.09 "Hg10 mi
2:00 PM70 °FSunny.10 mph25%30.09 "Hg10 mi
1:00 PM70 °FSunny.13 mph25%30.09 "Hg4 mi
12:00 PM68 °FSunny.15 mph24%30.12 "Hg4 mi
11:00 AM68 °FSunny.12 mph26%30.12 "Hg10 mi
10:00 AM64 °FSunny.10 mph37%30.12 "Hg10 mi
9:00 AM61 °FSunny.7 mph48%30.12 "Hg10 mi
8:00 AM52 °FSunny.3 mph67%30.09 "Hg10 mi
7:00 AM45 °FSunny.6 mph87%30.07 "Hg10 mi
6:00 AM50 °FClear.No wind76%30.07 "Hg10 mi
5:00 AM55 °FClear.12 mph67%30.04 "Hg10 mi
4:00 AM55 °FClear.10 mph63%30.01 "Hg10 mi
3:00 AM57 °FClear.12 mph59%30.01 "Hg10 mi
Weather by CustomWeather, © 2016

See weather overviewHow to use our weather pages